Weather History for Williams, AZ

Change the Weather History Date:

Saturday, April 12, 2014

  Actual Average (KFLG) Record (KFLG)
Temperature  
Mean Temperature 52 °F 42 °F  
Max Temperature 64 °F 57 °F 75 °F (1904)
Min Temperature 39 °F 28 °F 7 °F (1953)
Degree Days  
Heating Degree Days 14 23  
Month to date heating degree days 288  
Since 1 July heating degree days 5995  
Cooling Degree Days 0 0  
Month to date cooling degree days 0  
Year to date cooling degree days 0  
Growing Degree Days 2 (Base 50)    
Moisture  
Dew Point 14 °F    
Average Humidity 24    
Maximum Humidity 56    
Minimum Humidity 11    
Precipitation  
Precipitation 0.00 in 0.04 in 1.67 in (1941)
Month to date precipitation 0.56  
Year to date precipitation 6.89  
Snow  
Snow 0.00 in 0.30 in 12.00 in (1941)
Month to date snowfall 3.5  
Since 1 July snowfall 97.4  
Snow Depth -    
Sea Level Pressure  
Sea Level Pressure 30.00 in    
Wind  
Wind Speed 10 mph (South)    
Max Wind Speed 20 mph    
Max Gust Speed 39 mph    
Visibility 10 miles    
Events      
T = Trace of Precipitation, MM = Missing Value Source: NWS Daily Summary

Daily Weather History Graph

Daily Weather History Graph

Search for Another Location

Airport:

Trip Planner

Search our weather history database for the weather conditions in past years. The results will help you decide how hot, cold, wet, or windy it might be!

Date:

Astronomy

Apr. 12, 2014 Rise Set
Actual Time 6:00 AM MST 6:59 PM MST
Civil Twilight 5:34 AM MST 7:25 PM MST
Nautical Twilight 5:03 AM MST 7:56 PM MST
Astronomical Twilight 4:31 AM MST 8:28 PM MST
Moon 4:46 PM MST (4/12) 4:23 AM MST (4/12)
Length of Visible Light 13h 51m
Length of Day
12h 58m
Waxing Gibbous, 93% of the Moon is Illuminated
Apr 12
Waxing Gibbous
Apr 15
Full
Apr 22
Last Quarter
Apr 28
New
May 6
First Quarter

Hourly Weather History & Observations

Time (MST) Temp. Windchill Dew Point Humidity Pressure Visibility Wind Dir Wind Speed Gust Speed Precip Events Conditions
12:15 AM 48.2 °F - 26.6 °F 43% 30.12 in 10.0 mi SSE 8.1 mph - N/A   Scattered Clouds
12:35 AM 48.2 °F - 26.6 °F 43% 30.11 in 10.0 mi SE 8.1 mph - N/A   Partly Cloudy
12:55 AM 44.6 °F 40.7 °F 26.6 °F 49% 30.10 in 10.0 mi SSE 6.9 mph - N/A   Mostly Cloudy
1:15 AM 44.6 °F 39.7 °F 26.6 °F 49% 30.09 in 10.0 mi SSE 9.2 mph - N/A   Mostly Cloudy
1:35 AM 44.6 °F 39.7 °F 26.6 °F 49% 30.09 in 10.0 mi SSE 9.2 mph - N/A   Mostly Cloudy
1:55 AM 44.6 °F 40.2 °F 24.8 °F 46% 30.08 in 10.0 mi SSE 8.1 mph - N/A   Mostly Cloudy
2:15 AM 41.0 °F 35.2 °F 24.8 °F 53% 30.07 in 10.0 mi SSE 9.2 mph - N/A   Partly Cloudy
2:35 AM 41.0 °F 35.2 °F 24.8 °F 53% 30.07 in 10.0 mi SSE 9.2 mph - N/A   Clear
2:55 AM 39.2 °F 33.0 °F 24.8 °F 56% 30.06 in 10.0 mi SSE 9.2 mph - N/A   Clear
3:15 AM 39.2 °F 32.5 °F 23.0 °F 52% 30.05 in 10.0 mi SE 10.4 mph - N/A   Clear
3:35 AM 41.0 °F 34.7 °F 23.0 °F 49% 30.04 in 10.0 mi SE 10.4 mph - N/A   Clear
3:55 AM 41.0 °F 35.2 °F 19.4 °F 42% 30.04 in 10.0 mi SE 9.2 mph - N/A   Clear
4:15 AM 39.2 °F 35.0 °F 19.4 °F 45% 30.04 in 10.0 mi SE 5.8 mph - N/A   Clear
4:35 AM 44.6 °F 41.4 °F 15.8 °F 31% 30.04 in 10.0 mi ESE 5.8 mph - N/A   Clear
4:55 AM 46.4 °F 42.9 °F 15.8 °F 29% 30.04 in 10.0 mi ESE 6.9 mph - N/A   Clear
5:15 AM 42.8 °F 39.3 °F 17.6 °F 36% 30.04 in 10.0 mi SE 5.8 mph - N/A   Clear
5:35 AM 41.0 °F 35.2 °F 17.6 °F 39% 30.04 in 10.0 mi SE 9.2 mph - N/A   Clear
5:55 AM 39.2 °F 33.0 °F 17.6 °F 42% 30.04 in 10.0 mi SE 9.2 mph - N/A   Clear
6:15 AM 41.0 °F 35.8 °F 14.0 °F 33% 30.04 in 10.0 mi ESE 8.1 mph - N/A   Clear
6:35 AM 41.0 °F 35.8 °F 14.0 °F 33% 30.04 in 10.0 mi SE 8.1 mph - N/A   Clear
6:55 AM 44.6 °F 39.7 °F 12.2 °F 27% 30.03 in 10.0 mi SE 9.2 mph - N/A   Clear
7:15 AM 48.2 °F - 14.0 °F 25% 30.04 in 10.0 mi SE 11.5 mph - N/A   Clear
7:35 AM 50.0 °F - 14.0 °F 24% 30.04 in 10.0 mi SE 10.4 mph - N/A   Clear
7:55 AM 53.6 °F - 14.0 °F 21% 30.04 in 10.0 mi SE 12.7 mph - N/A   Clear
8:15 AM 53.6 °F - 15.8 °F 22% 30.03 in 10.0 mi SE 11.5 mph - N/A   Clear
8:35 AM 55.4 °F - 15.8 °F 21% 30.03 in 10.0 mi SE 9.2 mph - N/A   Clear
8:55 AM 57.2 °F - 15.8 °F 20% 30.02 in 10.0 mi SSE 8.1 mph - N/A   Clear
9:15 AM 59.0 °F - 15.8 °F 19% 30.02 in 10.0 mi South 11.5 mph 18.4 mph N/A   Clear
9:35 AM 59.0 °F - 14.0 °F 17% 30.02 in 10.0 mi SSW 12.7 mph 17.3 mph N/A   Clear
9:55 AM 60.8 °F - 14.0 °F 16% 30.02 in 10.0 mi SSE 13.8 mph 17.3 mph N/A   Clear
10:15 AM 62.6 °F - 14.0 °F 15% 30.02 in 10.0 mi SSW 10.4 mph 17.3 mph N/A   Clear
10:35 AM 62.6 °F - 12.2 °F 14% 30.02 in 10.0 mi South 10.4 mph 18.4 mph N/A   Clear
10:55 AM 62.6 °F - 14.0 °F 15% 30.02 in 10.0 mi SSW 15.0 mph 20.7 mph N/A   Clear
11:15 AM 62.6 °F - 14.0 °F 15% 30.01 in 10.0 mi SSW 12.7 mph 20.7 mph N/A   Clear
11:35 AM 62.6 °F - 14.0 °F 15% 30.00 in 10.0 mi SSW 19.6 mph 24.2 mph N/A   Clear
11:55 AM 64.4 °F - 14.0 °F 14% 29.99 in 10.0 mi SSW 9.2 mph 39.1 mph N/A   Clear
12:15 PM 64.4 °F - 12.2 °F 13% 29.98 in 10.0 mi SSW 13.8 mph 24.2 mph N/A   Partly Cloudy
12:35 PM 64.4 °F - 10.4 °F 12% 29.98 in 10.0 mi SSE 8.1 mph 21.9 mph N/A   Clear
12:55 PM 64.4 °F - 10.4 °F 12% 29.98 in 10.0 mi SSE 12.7 mph 23.0 mph N/A   Clear
1:15 PM 62.6 °F - 8.6 °F 12% 29.97 in 10.0 mi SSE 8.1 mph 20.7 mph N/A   Clear
1:35 PM 64.4 °F - 8.6 °F 11% 29.96 in 10.0 mi South 15.0 mph 24.2 mph N/A   Clear
1:55 PM 64.4 °F - 8.6 °F 11% 29.95 in 10.0 mi SW 12.7 mph 21.9 mph N/A   Clear
2:15 PM 64.4 °F - 8.6 °F 11% 29.95 in 10.0 mi South 13.8 mph 24.2 mph N/A   Clear
2:35 PM 64.4 °F - 8.6 °F 11% 29.95 in 10.0 mi South 9.2 mph 20.7 mph N/A   Clear
2:55 PM 64.4 °F - 8.6 °F 11% 29.94 in 10.0 mi SSW 12.7 mph 21.9 mph N/A   Clear
3:15 PM 60.8 °F - 8.6 °F 13% 29.93 in 10.0 mi SSW 10.4 mph - N/A   Partly Cloudy
3:35 PM 64.4 °F - 8.6 °F 11% 29.93 in 10.0 mi SSW 17.3 mph 24.2 mph N/A   Partly Cloudy
3:55 PM 64.4 °F - 8.6 °F 11% 29.93 in 10.0 mi SSW 13.8 mph 20.7 mph N/A   Clear
4:15 PM 62.6 °F - 6.8 °F 11% 29.93 in 10.0 mi SSW 17.3 mph 23.0 mph N/A   Clear
4:35 PM 62.6 °F - 8.6 °F 12% 29.93 in 10.0 mi SW 19.6 mph 25.3 mph N/A   Clear
4:55 PM 59.0 °F - 10.4 °F 15% 29.93 in 10.0 mi SSW 17.3 mph 20.7 mph N/A   Clear
5:15 PM 59.0 °F - 10.4 °F 15% 29.93 in 10.0 mi South 11.5 mph - N/A   Partly Cloudy
5:35 PM 60.8 °F - 14.0 °F 16% 29.94 in 10.0 mi SSW 9.2 mph 25.3 mph N/A   Scattered Clouds
5:55 PM 57.2 °F - 12.2 °F 17% 29.94 in 10.0 mi SW 12.7 mph 19.6 mph N/A   Scattered Clouds
6:15 PM 57.2 °F - 10.4 °F 16% 29.94 in 10.0 mi SSW 11.5 mph - N/A   Mostly Cloudy
6:35 PM 59.0 °F - 8.6 °F 14% 29.94 in 10.0 mi SW 13.8 mph - N/A   Mostly Cloudy
6:55 PM 57.2 °F - 8.6 °F 14% 29.95 in 10.0 mi SSW 9.2 mph - N/A   Mostly Cloudy
7:15 PM 55.4 °F - 8.6 °F 15% 29.95 in 10.0 mi SSW 8.1 mph - N/A   Overcast
7:35 PM 55.4 °F - 8.6 °F 15% 29.96 in 10.0 mi SW 6.9 mph - N/A   Overcast
7:55 PM 53.6 °F - 8.6 °F 16% 29.96 in 10.0 mi SSW 6.9 mph - N/A   Scattered Clouds
8:15 PM 51.8 °F - 8.6 °F 18% 29.97 in 10.0 mi SSW 9.2 mph - N/A   Clear
8:35 PM 51.8 °F - 8.6 °F 18% 29.98 in 10.0 mi SSW 10.4 mph - N/A   Clear
8:55 PM 50.0 °F - 8.6 °F 19% 29.98 in 10.0 mi SSW 9.2 mph - N/A   Clear
9:15 PM 50.0 °F - 8.6 °F 19% 29.99 in 10.0 mi SSW 9.2 mph - N/A   Clear
9:35 PM 50.0 °F - 8.6 °F 19% 29.99 in 10.0 mi SSW 10.4 mph - N/A   Clear
9:55 PM 50.0 °F - 8.6 °F 19% 29.99 in 10.0 mi SSW 10.4 mph - N/A   Clear
10:15 PM 50.0 °F - 8.6 °F 19% 29.99 in 10.0 mi South 8.1 mph - N/A   Clear
10:35 PM 50.0 °F - 8.6 °F 19% 29.99 in 10.0 mi SSW 10.4 mph 16.1 mph N/A   Clear
10:55 PM 50.0 °F - 8.6 °F 19% 29.99 in 10.0 mi SSW 10.4 mph - N/A   Clear
11:15 PM 50.0 °F - 8.6 °F 19% 29.99 in 10.0 mi South 9.2 mph - N/A   Clear
11:35 PM 50.0 °F - 8.6 °F 19% 29.99 in 10.0 mi SSW 9.2 mph - N/A   Clear
11:55 PM 50.0 °F - 8.6 °F 19% 30.00 in 10.0 mi South 12.7 mph 16.1 mph N/A   Clear